Drogheda, Ireland

9:02 PM GMT on November 23, 2017 (GMT +0000)
Drogheda

Weather History for 03969 - March, 2013

Change the Weather History Date:

Tuesday, March 5, 2013

  Actual Average Record
Temperature  
Mean Temperature 36 °F -  
Max Temperature 48 °F 50 °F - ()
Min Temperature 25 °F 38 °F - ()
Degree Days  
Heating Degree Days 28    
Moisture  
Dew Point 35 °F    
Average Humidity 88    
Maximum Humidity 100    
Minimum Humidity 57    
Precipitation  
Precipitation 0.00 in 0.07 in - ()
Sea Level Pressure  
Sea Level Pressure 29.62 in    
Wind  
Wind Speed 5 mph ()    
Max Wind Speed 14 mph    
Max Gust Speed -    
Visibility 3.5 miles    
Events      
T = Trace of Precipitation, MM = Missing Value Source: Averaged Metar Reports

Daily Weather History Graph

Daily Weather History Graph

Search for Another Location

Airport or City:

Trip Planner

Search our weather history database for the weather conditions in past years. The results will help you decide how hot, cold, wet, or windy it might be!

Date:

Astronomy

Mar. 05, 2013 Rise Set
Actual Time 7:03 AM GMT 6:10 PM GMT
Civil Twilight 6:28 AM GMT 6:45 PM GMT
Nautical Twilight 5:48 AM GMT 7:25 PM GMT
Astronomical Twilight 5:07 AM GMT 8:07 PM GMT
Moon 2:40 AM GMT (3/5) 10:56 AM GMT (3/5)
Length of Visible Light 12h 17m
Length of Day
11h 07m
Last Quarter, 43% of the Moon is Illuminated
Mar 5
Last Quarter
Mar 11
New
Mar 19
First Quarter
Mar 27
Full
Apr 3
Last Quarter

Hourly Weather History & Observations

Time (GMT) Temp. Windchill Dew Point Humidity Pressure Visibility Wind Dir Wind Speed Gust Speed Precip Events Conditions
12:00 AM 30 °F - 29 °F 93% 29.74 in 5 mi Calm Calm - -   Mist
12:00 AM 30.2 °F - 28.4 °F 93% 29.71 in 5.0 mi Calm Calm - N/A   Partly Cloudy
12:30 AM 30.2 °F - 28.4 °F 93% 29.71 in 5.0 mi Variable 2.3 mph - N/A   Partly Cloudy
1:00 AM 28.4 °F 24.6 °F 28.4 °F 100% 29.71 in 4.3 mi Variable 3.5 mph - N/A   Partly Cloudy
1:30 AM 28.4 °F 24.6 °F 28.4 °F 100% 29.68 in 4.3 mi Variable 3.5 mph - N/A   Partly Cloudy
2:00 AM 28.4 °F - 28.4 °F 100% 29.68 in 4.3 mi Variable 1.2 mph - N/A   Partly Cloudy
2:30 AM 28.4 °F - 28.4 °F 100% 29.68 in 4.3 mi North 2.3 mph - N/A   Partly Cloudy
3:00 AM 26.6 °F - 26.6 °F 100% 29.68 in 4.3 mi North 2.3 mph - N/A   Partly Cloudy
3:30 AM 26.6 °F 22.6 °F 26.6 °F 100% 29.68 in 4.3 mi NNE 3.5 mph - N/A   Partly Cloudy
4:00 AM 26.6 °F - 26.6 °F 100% 29.68 in 4.3 mi North 2.3 mph - N/A   Partly Cloudy
4:30 AM 26.6 °F - 26.6 °F 100% 29.68 in 4.3 mi North 2.3 mph - N/A   Partly Cloudy
5:00 AM 26.6 °F 21.2 °F 26.6 °F 100% 29.65 in 4.3 mi NNE 4.6 mph - N/A   Partly Cloudy
5:30 AM 30.2 °F 24.3 °F 30.2 °F 100% 29.65 in 4.3 mi NE 5.8 mph - N/A   Partly Cloudy
6:00 AM 27 °F - 27 °F 100% 29.68 in 4 mi NE 6.7 mph - -   Mist
6:00 AM 28.4 °F 21.2 °F 28.4 °F 100% 29.65 in 4.3 mi NE 6.9 mph - N/A   Partly Cloudy
6:30 AM 28.4 °F 21.2 °F 28.4 °F 100% 29.65 in 3.7 mi ENE 6.9 mph - N/A   Partly Cloudy
7:00 AM 32.0 °F 26.4 °F 30.2 °F 93% 29.65 in 2.2 mi NE 5.8 mph - N/A   Partly Cloudy
7:30 AM 33.8 °F 27.7 °F 32.0 °F 93% 29.65 in 1.2 mi NE 6.9 mph - N/A   Partly Cloudy
8:00 AM 33.8 °F 27.7 °F 32.0 °F 93% 29.65 in 0.9 mi NE 6.9 mph - N/A   Partly Cloudy
8:30 AM 35.6 °F 29.9 °F 35.6 °F 100% 29.65 in 4.3 mi ENE 6.9 mph - N/A   Partly Cloudy
9:00 AM 37.4 °F 32.1 °F 37.4 °F 100% 29.65 in 5.0 mi East 6.9 mph - N/A   Partly Cloudy
9:30 AM 41.0 °F 36.4 °F 39.2 °F 93% 29.65 in 5.0 mi East 6.9 mph - N/A   Partly Cloudy
10:30 AM 44.6 °F 39.7 °F 39.2 °F 81% 29.65 in 5.0 mi East 9.2 mph - N/A   Partly Cloudy
11:00 AM 46.4 °F 41.5 °F 39.2 °F 76% 29.62 in 5.0 mi East 10.4 mph - N/A   Partly Cloudy
11:30 AM 46.4 °F 41.5 °F 39.2 °F 76% 29.62 in 4.3 mi East 10.4 mph - N/A   Partly Cloudy
12:00 PM 47 °F - 36 °F 57% 29.65 in 4 mi East 11.2 mph - -   Mist
12:00 PM 48.2 °F - 37.4 °F 66% 29.62 in 4.3 mi East 10.4 mph - N/A   Partly Cloudy
12:30 PM 46.4 °F 41.5 °F 35.6 °F 66% 29.62 in 4.3 mi East 10.4 mph - N/A   Partly Cloudy
1:00 PM 46.4 °F 41.1 °F 35.6 °F 66% 29.62 in 4.3 mi East 11.5 mph - N/A   Mostly Cloudy
1:30 PM 46.4 °F 41.1 °F 35.6 °F 66% 29.62 in 5.0 mi East 11.5 mph - N/A   Mostly Cloudy
2:00 PM 46.4 °F 41.1 °F 37.4 °F 71% 29.59 in 5.0 mi ENE 11.5 mph - N/A   Mostly Cloudy
2:30 PM 46.4 °F 40.7 °F 39.2 °F 76% 29.59 in 3.1 mi East 12.7 mph - N/A   Scattered Clouds
3:00 PM 44.6 °F 38.1 °F 39.2 °F 81% 29.59 in - East 13.8 mph - N/A   Scattered Clouds
3:30 PM 46.4 °F 41.1 °F 39.2 °F 76% 29.59 in - East 11.5 mph - N/A   Mostly Cloudy
4:00 PM 44.6 °F 38.8 °F 39.2 °F 81% 29.59 in 2.2 mi ENE 11.5 mph - N/A   Mostly Cloudy
4:30 PM 42.8 °F 36.6 °F 39.2 °F 87% 29.59 in 1.6 mi ENE 11.5 mph - N/A   Mostly Cloudy
5:00 PM 42.8 °F 37.0 °F 39.2 °F 87% 29.56 in 1.6 mi ENE 10.4 mph - N/A   Mostly Cloudy
5:30 PM 41.0 °F 34.7 °F 37.4 °F 87% 29.56 in 1.6 mi ENE 10.4 mph - N/A   Scattered Clouds
6:00 PM 41 °F - 38 °F 85% 29.59 in 2 mi ENE 8.9 mph - -   Mist
6:00 PM 41.0 °F 35.2 °F 37.4 °F 87% 29.56 in 1.6 mi ENE 9.2 mph - N/A   Mostly Cloudy
6:30 PM 41.0 °F 35.8 °F 39.2 °F 93% 29.56 in - East 8.1 mph - N/A   Mostly Cloudy
7:00 PM 41.0 °F 34.7 °F 39.2 °F 93% 29.56 in 2.8 mi ENE 10.4 mph - N/A   Mostly Cloudy
7:30 PM 41.0 °F 35.8 °F 39.2 °F 93% 29.56 in 2.8 mi East 8.1 mph - N/A   Mostly Cloudy
8:00 PM 42.8 °F 37.5 °F 39.2 °F 87% 29.56 in 2.8 mi East 9.2 mph - N/A   Light Drizzle
8:30 PM 42.8 °F 37.5 °F 39.2 °F 87% 29.56 in 2.8 mi East 9.2 mph - N/A   Mostly Cloudy
9:00 PM 42.8 °F 38.0 °F 39.2 °F 87% 29.56 in 2.8 mi East 8.1 mph - N/A   Mostly Cloudy
9:30 PM 42.8 °F 37.0 °F 39.2 °F 87% 29.56 in 2.5 mi East 10.4 mph - N/A   Mostly Cloudy
10:00 PM 42.8 °F 37.5 °F 39.2 °F 87% 29.56 in 2.5 mi ENE 9.2 mph - N/A   Mostly Cloudy
10:30 PM 42.8 °F 37.5 °F 39.2 °F 87% 29.56 in 2.5 mi ENE 9.2 mph - N/A   Mostly Cloudy
11:00 PM 42.8 °F 38.0 °F 39.2 °F 87% 29.56 in 2.2 mi ENE 8.1 mph - N/A   Mostly Cloudy
11:30 PM 41.0 °F 35.2 °F 39.2 °F 93% 29.56 in 2.2 mi NE 9.2 mph - N/A   Mostly Cloudy